Location: Huntsville
(41.2590°N, 111.7678°W)
Time: 02:22:25
(UTC+00:00)

Transit 4A - All Passes

Search period start: 13 June 2021 00:00
Search period end: 23 June 2021 00:00
Orbit: 871 x 973 km, 66.8° (Epoch: 12 June)

Date Brightness Start Highest point End Pass type
(mag) Time Alt. Az. Time Alt. Az. Time Alt. Az.
13 Jun - 02:10:17 10° N 02:15:01 25° NE 02:19:44 10° E daylight
13 Jun - 03:56:02 10° NW 04:01:46 60° WSW 04:07:30 10° SSE visible
13 Jun - 17:17:16 10° SSE 17:22:28 30° ESE 17:27:34 10° NE daylight
13 Jun - 19:02:48 10° SW 19:08:35 45° NW 19:14:16 10° NNE daylight
13 Jun - 20:55:17 10° NW 20:56:31 11° NNW 20:57:44 10° NNW daylight
14 Jun - 02:19:17 10° NNW 02:24:35 34° NE 02:29:51 10° ESE daylight
14 Jun - 04:05:34 10° NW 04:10:57 40° WSW 04:16:20 10° S visible
14 Jun - 17:25:51 10° S 17:31:35 45° ESE 17:37:14 10° NE daylight
14 Jun - 19:12:43 10° WSW 19:18:04 32° NW 19:23:21 10° NNE daylight
15 Jun - 00:44:35 10° NNE 00:46:12 11° NNE 00:47:50 10° NE daylight
15 Jun - 02:28:23 10° NNW 02:34:02 49° NE 02:39:41 10° SE daylight
15 Jun - 04:15:20 10° NW 04:20:02 26° WSW 04:24:48 10° SSW visible
15 Jun - 17:34:46 10° SSW 17:40:48 68° ESE 17:46:42 10° NE daylight
15 Jun - 19:22:55 10° W 19:27:39 23° NW 19:32:19 10° N daylight
16 Jun - 00:52:45 10° N 00:56:00 15° NE 00:59:15 10° ENE daylight
16 Jun - 02:37:35 10° NNW 02:43:25 72° ENE 02:49:15 10° SE daylight
16 Jun - 04:25:29 10° WNW 04:29:05 17° WSW 04:32:42 10° SW visible
16 Jun - 16:01:14 10° SE 16:04:29 15° ESE 16:07:41 10° ENE daylight
16 Jun - 17:43:59 10° SSW 17:50:04 83° WNW 17:56:02 10° NNE daylight
16 Jun - 19:33:27 10° W 19:37:19 17° NW 19:41:08 10° N daylight
17 Jun - 01:01:28 10° N 01:05:43 20° NE 01:09:57 10° E daylight
17 Jun - 02:46:52 10° NNW 02:52:43 78° WSW 02:58:34 10° SSE daylight
17 Jun - 04:37:27 10° W 04:38:03 10° W 04:38:39 10° WSW visible
17 Jun - 16:08:52 10° SSE 16:13:30 23° ESE 16:18:04 10° ENE daylight
17 Jun - 17:53:28 10° SW 17:59:25 57° WNW 18:05:16 10° NNE daylight
17 Jun - 19:44:28 10° WNW 19:47:04 13° NW 19:49:39 10° N daylight
18 Jun - 01:10:23 10° N 01:15:20 28° NE 01:20:16 10° ESE daylight
18 Jun - 02:56:18 10° NW 03:01:56 52° WSW 03:07:35 10° S daylight
18 Jun - 16:17:11 10° S 16:22:36 35° ESE 16:27:55 10° NE daylight
18 Jun - 18:03:13 10° WSW 18:08:51 40° NW 18:14:23 10° NNE daylight
19 Jun - 01:19:24 10° NNW 01:24:51 39° NE 01:30:17 10° ESE daylight
19 Jun - 03:05:54 10° NW 03:11:05 34° WSW 03:16:18 10° S daylight
19 Jun - 16:25:54 10° S 16:31:46 52° ESE 16:37:30 10° NE daylight
19 Jun - 18:13:13 10° WSW 18:18:22 29° NW 18:23:26 10° NNE daylight
19 Jun - 23:44:15 10° N 23:46:36 12° NE 23:48:56 10° ENE daylight
20 Jun - 01:28:32 10° NNW 01:34:16 56° NE 01:40:01 10° SE daylight
20 Jun - 03:15:46 10° WNW 03:20:09 23° WSW 03:24:36 10° SSW daylight
20 Jun - 14:54:21 10° ESE 14:55:36 11° E 14:56:51 10° E daylight
20 Jun - 16:34:56 10° SSW 16:40:59 78° ESE 16:46:55 10° NNE daylight
20 Jun - 18:23:32 10° W 18:27:58 21° NW 18:32:21 10° N daylight
20 Jun - 23:52:43 10° N 23:56:22 17° NE 00:00:01 10° ENE daylight
21 Jun - 01:37:46 10° NNW 01:43:37 82° ENE 01:49:30 10° SSE daylight
21 Jun - 03:26:11 10° WNW 03:29:10 14° WSW 03:32:10 10° SW daylight
21 Jun - 15:00:46 10° SE 15:04:35 17° ESE 15:08:21 10° ENE daylight
21 Jun - 16:44:15 10° SW 16:50:17 73° WNW 16:56:13 10° NNE daylight
21 Jun - 18:34:13 10° WNW 18:37:40 15° NW 18:41:06 10° N daylight
22 Jun - 00:01:31 10° N 00:06:02 23° NE 00:10:33 10° E daylight
22 Jun - 01:47:07 10° NW 01:52:54 68° WSW 01:58:43 10° SSE daylight
22 Jun - 15:08:41 10° SSE 15:13:38 27° ESE 15:18:30 10° NE daylight
22 Jun - 16:53:49 10° SW 16:59:40 50° NW 17:05:25 10° NNE daylight
22 Jun - 18:45:33 10° NW 18:47:28 11° NNW 18:49:23 10° NNW daylight
